Exeter, United Kingdom

4:11 AM BST on August 30, 2016 (GMT +0100)
Exeter

Weather History for EGTE - July, 2013

Change the Weather History Date:

Saturday, July 13, 2013

  Actual Average Record
Temperature  
Mean Temperature 66 °F -  
Max Temperature 87 °F 68 °F 87 °F (2013)
Min Temperature 45 °F 52 °F 44 °F (2016)
Cooling Degree Days 1    
Growing Degree Days 16 (Base 50)    
Moisture  
Dew Point 56 °F    
Average Humidity 61    
Maximum Humidity 100    
Minimum Humidity 25    
Precipitation  
Precipitation 0.00 in - - ()
Sea Level Pressure  
Sea Level Pressure 30.26 in    
Wind  
Wind Speed 4 mph ()    
Max Wind Speed 9 mph    
Max Gust Speed -    
Visibility 4.7 miles    
Events      
Averages and records for this station are not official NWS values.
T = Trace of Precipitation, MM = Missing Value Source: Averaged Metar Reports

Daily Weather History Graph

Daily Weather History Graph

Search for Another Location

Airport or City:

Trip Planner

Search our weather history database for the weather conditions in past years. The results will help you decide how hot, cold, wet, or windy it might be!

Date:

Astronomy

Jul. 13, 2013 Rise Set
Actual Time 5:15 AM BST 9:22 PM BST
Civil Twilight 4:31 AM BST 10:06 PM BST
Nautical Twilight 3:29 AM BST 11:08 PM BST
Astronomical Twilight 1:51 AM BST 12:47 AM BST
Moon 10:56 AM BST (7/13) 11:13 PM BST (7/13)
Length of Visible Light 17h 34m
Length of Day
16h 06m
Waxing Crescent, 23% of the Moon is Illuminated
Jul 13
Waxing Crescent
Jul 16
First Quarter
Jul 22
Full
Jul 29
Last Quarter
Aug 6
New

Hourly Weather History & Observations

Time (BST) Temp. Heat Index Dew Point Humidity Pressure Visibility Wind Dir Wind Speed Gust Speed Precip Events Conditions
12:20 AM 53.6 °F - 51.8 °F 94% 30.27 in - East 3.5 mph - N/A   Clear
12:50 AM 52 °F - 51 °F 94%  in - Calm Calm - -  
12:50 AM 53.6 °F - 51.8 °F 94% 30.27 in 5.0 mi ESE 2.3 mph - N/A   Unknown
1:20 AM 51.8 °F - 50.0 °F 94% 30.27 in 5.0 mi Variable 1.2 mph - N/A   Unknown
1:50 AM 49 °F - 48 °F 96%  in - Calm Calm - -  
1:50 AM 51.8 °F - 51.8 °F 100% 30.27 in 5.0 mi NE 2.3 mph - N/A   Unknown
2:20 AM 51.8 °F - 50.0 °F 94% 30.27 in 5.0 mi East 2.3 mph - N/A   Unknown
2:50 AM 48 °F - 47 °F 96%  in - Calm Calm - -  
3:50 AM 48 °F - 48 °F 98%  in - Calm Calm - -  
4:50 AM 48 °F - 48 °F 98%  in - Calm Calm - -  
5:50 AM 49 °F - 48 °F 97%  in - Calm Calm - -  
5:50 AM 50.0 °F - 48.2 °F 94% 30.27 in 3.7 mi Calm Calm - N/A   Unknown
6:20 AM 51.8 °F - 50.0 °F 94% 30.27 in 4.3 mi NNE 2.3 mph - N/A   Unknown
6:50 AM 53 °F - 52 °F 95%  in - Calm Calm - -  
6:50 AM 53.6 °F - 51.8 °F 94% 30.27 in 4.3 mi Variable 3.5 mph - N/A   Partly Cloudy
7:20 AM 55.4 °F - 53.6 °F 94% 30.27 in 5.0 mi NE 4.6 mph - N/A   Partly Cloudy
7:50 AM 61 °F - 58 °F 88%  in - Calm Calm - -  
7:50 AM 59.0 °F - 55.4 °F 88% 30.27 in - Variable 1.2 mph - N/A   Clear
8:20 AM 62.6 °F - 57.2 °F 82% 30.27 in - Variable 1.2 mph - N/A   Clear
8:50 AM 67 °F - 58 °F 66%  in - Calm Calm - -  
8:50 AM 66.2 °F - 59.0 °F 78% 30.27 in - Variable 2.3 mph - N/A   Clear
9:20 AM 69.8 °F - 59.0 °F 68% 30.27 in - Variable 2.3 mph - N/A   Clear
9:50 AM 75 °F - 60 °F 51%  in - Calm Calm - -  
9:50 AM 71.6 °F - 59.0 °F 64% 30.27 in - Variable 2.3 mph - N/A   Clear
10:20 AM 77.0 °F - 59.0 °F 54% 30.27 in - Variable 2.3 mph - N/A   Clear
10:50 AM 78 °F - 58 °F 41%  in - Calm Calm - -  
10:50 AM 78.8 °F - 59.0 °F 51% 30.27 in - Variable 3.5 mph - N/A   Clear
11:20 AM 80.6 °F 81.1 °F 59.0 °F 48% 30.27 in - Variable 3.5 mph - N/A   Clear
11:50 AM 83 °F - 61 °F 37%  in - Calm Calm - -  
11:50 AM 82.4 °F 82.5 °F 59.0 °F 45% 30.24 in - Variable 3.5 mph - N/A   Clear
12:20 PM 84.2 °F 83.8 °F 59.0 °F 42% 30.24 in - North 4.6 mph - N/A   Clear
12:50 PM 85 °F - 62 °F 37%  in - Calm Calm - -  
12:50 PM 84.2 °F 83.5 °F 57.2 °F 40% 30.24 in - Variable 5.8 mph - N/A   Clear
1:20 PM 86.0 °F 84.9 °F 57.2 °F 37% 30.24 in - Variable 6.9 mph - N/A   Clear
1:50 PM 85 °F - 59 °F 31%  in - Calm Calm - -  
1:50 PM 86.0 °F 84.9 °F 57.2 °F 37% 30.24 in - Variable 5.8 mph - N/A   Clear
2:20 PM 87.8 °F 86.5 °F 57.2 °F 35% 30.24 in - East 6.9 mph - N/A   Clear
2:50 PM 87 °F - 56 °F 25%  in - Calm Calm - -  
2:50 PM 86.0 °F 85.4 °F 59.0 °F 40% 30.24 in - Variable 6.9 mph - N/A   Clear
3:20 PM 86.0 °F 85.4 °F 59.0 °F 40% 30.24 in - South 9.2 mph - N/A   Clear
3:50 PM 86 °F - 60 °F 31%  in - Calm Calm - -  
3:50 PM 86.0 °F 85.4 °F 59.0 °F 40% 30.24 in - South 6.9 mph - N/A   Clear
4:20 PM 86.0 °F 85.4 °F 59.0 °F 40% 30.24 in - SSW 6.9 mph - N/A   Clear
4:50 PM 86.0 °F 85.4 °F 59.0 °F 40% 30.24 in - SSW 8.1 mph - N/A   Clear
5:20 PM 84.2 °F 83.8 °F 59.0 °F 42% 30.24 in - SSW 9.2 mph - N/A   Clear
5:50 PM 84 °F - 60 °F 34%  in - Calm Calm - -  
5:50 PM 84.2 °F 83.8 °F 59.0 °F 42% 30.24 in - SSW 8.1 mph - N/A   Clear
6:20 PM 82.4 °F 82.9 °F 60.8 °F 48% 30.24 in - SSW 9.2 mph - N/A   Clear
6:50 PM 83 °F - 60 °F 36%  in - Calm Calm - -  
6:50 PM 82.4 °F 82.9 °F 60.8 °F 48% 30.24 in - SSW 5.8 mph - N/A   Clear
7:20 PM 82.4 °F 82.5 °F 59.0 °F 45% 30.24 in - Variable 3.5 mph - N/A   Clear
7:50 PM 82.4 °F 82.5 °F 59.0 °F 45% 30.24 in - Variable 2.3 mph - N/A   Clear
8:20 PM 80.6 °F 80.3 °F 53.6 °F 39% 30.24 in - North 8.1 mph - N/A   Clear
8:50 PM 74 °F - 57 °F 45%  in - Calm Calm - -  
8:50 PM 77.0 °F - 57.2 °F 50% 30.24 in - WNW 8.1 mph - N/A   Clear
9:20 PM 73.4 °F - 57.2 °F 57% 30.24 in - NW 9.2 mph - N/A   Clear
9:50 PM 69 °F - 54 °F 48%  in - Calm Calm - -  
9:50 PM 71.6 °F - 55.4 °F 57% 30.27 in - NW 8.1 mph - N/A   Clear
10:20 PM 69.8 °F - 53.6 °F 56% 30.27 in - NNW 5.8 mph - N/A   Clear
10:50 PM 66 °F - 53 °F 54%  in - Calm Calm - -  
10:50 PM 68.0 °F - 55.4 °F 64% 30.27 in - NNW 5.8 mph - N/A   Clear
11:20 PM 68.0 °F - 53.6 °F 60% 30.27 in - NNW 4.6 mph - N/A   Clear
11:50 PM 66.2 °F - 53.6 °F 64% 30.27 in - NW 4.6 mph - N/A   Clear